Location: Katherine
(14.4670°S, 132.2670°E)
Time: 23:25:18
(UTC+09:30)

ISS - Visible Passes

Search period start: 23 April 2017 00:00
Search period end: 03 May 2017 00:00
Orbit: 400 x 409 km, 51.6° (Epoch: 23 April)

Date Brightness Start Highest point End Pass type
(mag) Time Alt. Az. Time Alt. Az. Time Alt. Az.
23 Apr -1.3 05:58:48 10° S 06:01:18 20° SE 06:03:47 10° E visible
23 Apr -2.0 19:15:37 10° NNE 19:17:46 16° NE 19:18:09 16° ENE visible
24 Apr -2.7 19:58:38 10° NW 20:01:38 42° WSW 20:01:38 42° WSW visible
25 Apr -3.7 05:51:01 19° SSW 05:53:15 74° SE 05:56:31 10° NE visible
25 Apr -3.8 19:06:19 10° NNW 19:09:32 63° NE 19:12:20 13° SE visible
26 Apr -1.5 05:01:46 24° ESE 05:01:46 24° ESE 05:03:49 10° ENE visible
26 Apr -0.9 19:52:04 10° WSW 19:53:44 13° SW 19:55:24 10° SSW visible
27 Apr -2.6 05:45:14 25° NW 05:45:14 25° NW 05:47:48 10° N visible
27 Apr -2.0 18:58:26 10° WNW 19:01:22 30° SW 19:04:21 10° SSE visible
28 Apr -0.7 04:55:56 11° NNE 04:55:56 11° NNE 04:56:04 10° NNE visible
